{"data":{"norad_id":63157,"intl_designator":"2025-045A","name":"TJS-15","alt_names":[],"object_type":"PAYLOAD","status":"ACTIVE","operator":null,"country":"PRC","launch_date":"2025-03-09","launch_site_code":"XICLF","launch_vehicle":null,"mission":null,"orbit_class":"UNKNOWN","rcs_meters":null,"size_class":null,"mass_kg":null,"dimensions":null,"purposes":["comms"],"wikipedia_slug":null,"has_3d_model":false,"image_url":null,"decayed_at":null,"tle_current":{"epoch":"2026-09-19T19:17:14.027712Z","epoch_age_seconds":78543,"freshness":"FRESH","line1":"1 63157U 25045A   26262.80363458 -.00000222  00000+0  00000+0 0  9998","line2":"2 63157   0.4460  84.6954 0000134 238.3192  53.7427  1.00271651  5703","mean_motion":1.00271651,"eccentricity":1.34e-5,"inclination_deg":0.446,"raan_deg":84.6954,"arg_perigee_deg":238.3192,"mean_anomaly_deg":53.7427,"bstar":0,"rev_number":570,"period_min":1436.0988231858,"perigee_km":35786.067518385,"apogee_km":35787.197534209,"semimajor_km":42164.769526297,"source":"CELESTRAK","updated_at":"2026-09-20T09:00:35.342816Z"}}}